STARLINK-32189 (60317 NORAD) Tracking and Keplerian Element Data

This shows tracking and keplerian element data for the satellite.

Feedback or suggestion? Click here.




ElementValue
Catalog60317
NameSTARLINK-32189
Epoch Orbit1298
Epoch Day286.00786794
Epoch Year2024
RAAN170.1455
Inclination53.1598
Eccentricity0.0001182
Argument of Perigee75.7218
Mean Anonmoly284.3918
Mean Motion15.39573771
Decay Rate-0.00016139
L11 60317U 24133S 24286.00786794 -.00016139 00000+0 -39494-3 0 9996
L22 60317 53.1598 170.1455 0001182 75.7218 284.3918 15.39573771 12988



Live tracking and technical data element details for STARLINK-32189 (NORAD 60317). STARLINK-32189 can be tracked NOW for your location showing map with azimuth and elevation plus other details from your city location.







IsCatalogInMostPopularTable: catalog: 60317, numindb: 7
Update: records affected: 1



GetName: 60317 STARLINK-32189

Hit Count: updated at: Tue, 03 Dec 2024 02:35:04 GMT